FW4411 Milton FL US current weather conditions

sailwx.info

Wind from 180 at 0 knots

Air temperature 15.0° C
Dewpoint 8.7° C

Last reported at 2020-Jan-28 23:03 UTC.
Time now 2020-Jan-28 23:21 UTC

Location: N 30°28' W 087°06'.
View on Google Maps.

See reports from other nearby stations

  
Tides and Currents Weather Stations Pressure Air Temp Water Temp Dewpoint Dewpoint Depression Visibility Wind Speed Wind Dir Waves Ship Positions
date/time (UTC)wind fromknots sea level pressurealtimeterstation pressurevisibilityair tempwater tempwave heightnotes
2020-Jan-28 23:03 180 0 15.0
2020-Jan-28 22:58 180 1 15.0
2020-Jan-28 22:53 180 0 15.0
2020-Jan-28 22:48 180 0 15.0
2020-Jan-28 22:43 180 1 15.0
2020-Jan-28 22:38 138 1 15.0
2020-Jan-28 22:33 182 1 15.0
2020-Jan-28 22:28 165 1 15.0
2020-Jan-28 22:23 182 1 15.0
2020-Jan-28 22:18 160 2 15.0
2020-Jan-28 22:13 202 1 15.0
2020-Jan-28 22:08 036 1 14.4
2020-Jan-28 22:03 188 2 15.0
2020-Jan-28 21:58 188 2 15.0
2020-Jan-28 21:53 188 1 15.0
2020-Jan-28 21:48 188 1 14.4
2020-Jan-28 21:43 205 2 15.0
2020-Jan-28 21:38 205 2 15.0
2020-Jan-28 21:33 204 2 15.0
2020-Jan-28 21:28 200 2 14.4
2020-Jan-28 21:23 180 1 14.4
2020-Jan-28 21:18 221 2 14.4
2020-Jan-28 21:13 215 2 15.0
2020-Jan-28 21:08 225 3 15.0
2020-Jan-28 21:03 224 3 15.0
2020-Jan-28 20:58 224 3 15.6
2020-Jan-28 20:53 215 3 15.6
2020-Jan-28 20:48 219 3 15.6
2020-Jan-28 20:43 215 3 15.6
2020-Jan-28 20:38 215 3 16.1
2020-Jan-28 20:33 229 3 16.7
2020-Jan-28 20:28 107 3 16.7
2020-Jan-28 20:23 146 3 16.7
2020-Jan-28 20:18 174 4 16.7
2020-Jan-28 20:13 175 4 16.7
2020-Jan-28 20:08 139 5 16.7
2020-Jan-28 20:03 134 5 16.7
2020-Jan-28 19:58 139 4 16.7
2020-Jan-28 19:53 140 5 16.7
2020-Jan-28 19:48 173 6 16.1
2020-Jan-28 19:43 138 5 16.7
2020-Jan-28 19:38 158 5 16.7
2020-Jan-28 19:33 120 5 16.7
2020-Jan-28 19:28 175 5 16.7
2020-Jan-28 19:23 119 6 16.7
2020-Jan-28 19:18 163 6 16.7
2020-Jan-28 19:13 162 6 16.7
2020-Jan-28 19:08 122 6 16.7
2020-Jan-28 19:03 171 5 17.2
2020-Jan-28 18:58 117 6 16.7
2020-Jan-28 18:53 150 6 16.7
2020-Jan-28 18:48 180 5 16.7
2020-Jan-28 18:43 118 5 16.7
2020-Jan-28 18:38 115 5 16.7
2020-Jan-28 18:33 159 4 17.2
2020-Jan-28 18:28 181 4 16.7
2020-Jan-28 18:23 165 4 16.7
2020-Jan-28 18:18 103 4 17.2
2020-Jan-28 18:13 113 4 17.2
2020-Jan-28 18:08 141 3 16.7
2020-Jan-28 18:03 147 3 16.7
2020-Jan-28 17:58 081 3 16.7
2020-Jan-28 17:53 087 3 16.7
2020-Jan-28 17:48 080 2 16.7
2020-Jan-28 17:43 035 3 16.1
2020-Jan-28 17:38 096 3 16.1
2020-Jan-28 17:33 109 3 16.1
2020-Jan-28 17:28 346 4 15.6
2020-Jan-28 17:23 028 4 15.6
2020-Jan-28 17:18 073 4 15.6
2020-Jan-28 17:13 109 3 15.6
2020-Jan-28 17:08 075 3 15.0
2020-Jan-28 17:03 067 4 15.0
2020-Jan-28 16:58 084 4 14.4
2020-Jan-28 16:53 067 3 14.4
2020-Jan-28 16:48 111 3 14.4
2020-Jan-28 16:43 112 3 13.9
2020-Jan-28 16:38 094 2 13.9
2020-Jan-28 16:33 020 2 13.9
2020-Jan-28 16:28 071 2 13.3
2020-Jan-28 16:23 042 2 13.3
2020-Jan-28 16:18 023 2 13.3
2020-Jan-28 16:13 112 2 12.8
2020-Jan-28 16:08 034 1 12.8
2020-Jan-28 16:03 005 1 12.8
2020-Jan-28 15:58 051 1 12.2
2020-Jan-28 15:53 062 2 12.2
2020-Jan-28 15:48 111 2 11.7
2020-Jan-28 15:43 050 1 11.7
2020-Jan-28 15:38 017 2 11.1
2020-Jan-28 15:33 031 2 11.1
2020-Jan-28 15:28 030 2 11.1
2020-Jan-28 15:23 022 2 10.6
2020-Jan-28 15:18 360 2 10.6
2020-Jan-28 15:13 038 2 10.6
2020-Jan-28 15:08 059 1 10.0
2020-Jan-28 15:03 057 2 10.0
2020-Jan-28 14:58 026 2 9.4
2020-Jan-28 14:53 049 1 9.4
2020-Jan-28 14:48 046 1 8.9
2020-Jan-28 14:43 011 0 8.9
2020-Jan-28 14:38 030 0 8.9
2020-Jan-28 14:33 040 0 8.3
2020-Jan-28 14:28 019 0 8.3
2020-Jan-28 14:23 042 0 7.8
2020-Jan-28 14:18 042 1 7.8
2020-Jan-28 14:13 028 1 7.2
2020-Jan-28 14:08 028 1 7.2
2020-Jan-28 14:03 020 0 6.7
2020-Jan-28 13:58 031 1 6.7
2020-Jan-28 13:53 123 0 6.7
2020-Jan-28 13:48 128 6.7
2020-Jan-28 13:43 164 6.1
2020-Jan-28 13:38 164 6.1
2020-Jan-28 13:33 164 6.1
2020-Jan-28 13:28 164 5.6
2020-Jan-28 13:23 164 5.6
2020-Jan-28 13:18 164 5.6
2020-Jan-28 13:13 164 5.6
2020-Jan-28 13:08 164 5.6
2020-Jan-28 13:03 164 5.6
2020-Jan-28 12:58 176 5.0
2020-Jan-28 12:53 176 5.6
2020-Jan-28 12:48 176 5.6
2020-Jan-28 12:43 176 5.6
2020-Jan-28 12:38 176 5.6
2020-Jan-28 12:33 026 5.6
2020-Jan-28 12:28 026 5.6
2020-Jan-28 12:23 026 5.6
2020-Jan-28 12:18 026 5.6
2020-Jan-28 12:13 026 5.6
2020-Jan-28 12:08 026 5.6
2020-Jan-28 12:03 026 5.6
2020-Jan-28 11:58 026 5.6
2020-Jan-28 11:53 026 5.6
2020-Jan-28 11:48 026 5.6
2020-Jan-28 11:43 026 5.6
2020-Jan-28 11:38 026 5.6
2020-Jan-28 11:33 026 5.6
2020-Jan-28 11:28 026 5.6
2020-Jan-28 11:23 026 5.6
2020-Jan-28 11:18 026 5.6
2020-Jan-28 11:13 026 6.1
2020-Jan-28 11:08 026 6.1
2020-Jan-28 11:03 026 6.1
2020-Jan-28 10:58 026 6.1
2020-Jan-28 10:53 026 6.1
2020-Jan-28 10:48 026 6.7
2020-Jan-28 10:43 026 6.7
2020-Jan-28 10:38 026 6.7
2020-Jan-28 10:33 026 6.7
2020-Jan-28 10:28 026 6.7
2020-Jan-28 10:23 026 6.7
2020-Jan-28 10:18 026 6.7
2020-Jan-28 10:13 026 6.7
2020-Jan-28 10:08 026 6.7
2020-Jan-28 10:03 026 6.7
2020-Jan-28 09:58 026 6.7
2020-Jan-28 09:53 026 6.7
2020-Jan-28 09:48 026 6.7
2020-Jan-28 09:43 026 6.1
2020-Jan-28 09:38 026 6.1
2020-Jan-28 09:33 026 6.7
2020-Jan-28 09:28 026 6.7
2020-Jan-28 09:23 026 6.1
2020-Jan-28 09:18 026 6.1
2020-Jan-28 09:13 026 6.1
2020-Jan-28 09:08 026 6.1
2020-Jan-28 09:03 026 6.1
2020-Jan-28 08:58 026 6.7
2020-Jan-28 08:53 026 6.1
2020-Jan-28 08:48 026 6.1
2020-Jan-28 08:43 026 6.1
2020-Jan-28 08:38 026 6.1
2020-Jan-28 08:33 026 6.1
2020-Jan-28 08:28 026 6.1
2020-Jan-28 08:23 026 6.1
2020-Jan-28 08:18 026 5.6
2020-Jan-28 08:13 026 6.1
2020-Jan-28 08:08 026 6.1
2020-Jan-28 08:03 026 6.1
2020-Jan-28 07:58 026 6.1
2020-Jan-28 07:53 026 6.1
2020-Jan-28 07:48 026 6.1
2020-Jan-28 07:43 026 6.1
2020-Jan-28 07:38 026 6.1
2020-Jan-28 07:33 026 6.1
2020-Jan-28 07:28 026 6.1
2020-Jan-28 07:23 026 6.7
2020-Jan-28 07:18 026 6.7
2020-Jan-28 07:13 026 6.7
2020-Jan-28 07:08 026 7.2
2020-Jan-28 07:03 026 7.2
2020-Jan-28 06:58 026 7.2
2020-Jan-28 06:53 026 7.2
2020-Jan-28 06:48 026 7.2
2020-Jan-28 06:43 026 7.8
2020-Jan-28 06:38 026 7.8
2020-Jan-28 06:33 026 7.8
2020-Jan-28 06:28 026 7.8
2020-Jan-28 06:23 026 7.8
2020-Jan-28 06:18 026 7.8
2020-Jan-28 06:13 026 7.8
2020-Jan-28 06:08 026 8.3
2020-Jan-28 06:03 026 8.3
2020-Jan-28 05:58 026 8.3
2020-Jan-28 05:53 026 8.3
2020-Jan-28 05:48 026 8.3
2020-Jan-28 05:43 026 8.3
2020-Jan-28 05:38 026 8.9
2020-Jan-28 05:33 026 8.9
2020-Jan-28 05:28 026 8.9
2020-Jan-28 05:23 026 8.3
2020-Jan-28 05:18 026 8.3
2020-Jan-28 05:13 026 8.3
2020-Jan-28 05:08 026 8.3
2020-Jan-28 05:03 026 8.3
2020-Jan-28 04:58 026 8.3
2020-Jan-28 04:53 026 8.9
2020-Jan-28 04:48 026 8.9
2020-Jan-28 04:43 026 9.4
2020-Jan-28 04:38 026 9.4
2020-Jan-28 04:33 026 9.4
2020-Jan-28 04:28 026 9.4
2020-Jan-28 04:23 026 9.4
2020-Jan-28 04:18 026 9.4
2020-Jan-28 04:13 026 0 10.0
2020-Jan-28 04:08 026 10.0
2020-Jan-28 04:03 026 10.0
2020-Jan-28 03:58 026 0 10.0
2020-Jan-28 03:53 026 0 10.0
2020-Jan-28 03:48 026 10.0
2020-Jan-28 03:43 028 10.0
2020-Jan-28 03:38 028 10.0
2020-Jan-28 03:33 028 10.0
2020-Jan-28 03:28 028 10.0
2020-Jan-28 03:23 028 10.0
2020-Jan-28 03:18 028 10.0
2020-Jan-28 03:13 028 10.6
2020-Jan-28 03:08 028 10.6
2020-Jan-28 03:03 028 10.6
2020-Jan-28 02:58 028 10.6
2020-Jan-28 02:53 028 10.6
2020-Jan-28 02:48 028 10.6
2020-Jan-28 02:43 028 10.6
2020-Jan-28 02:38 028 10.6
2020-Jan-28 02:33 028 10.6
2020-Jan-28 02:28 028 10.6
2020-Jan-28 02:23 028 10.6
2020-Jan-28 02:18 028 10.6
2020-Jan-28 02:13 028 10.6
2020-Jan-28 02:08 028 10.6
2020-Jan-28 02:03 028 10.6
2020-Jan-28 01:58 028 0 10.6
2020-Jan-28 01:53 028 0 10.6
2020-Jan-28 01:48 028 0 10.6
2020-Jan-28 01:43 028 0 10.6
2020-Jan-28 01:38 028 10.0
2020-Jan-28 01:33 028 10.0
2020-Jan-28 01:28 028 10.0
2020-Jan-28 01:23 028 9.4
2020-Jan-28 01:18 028 9.4
2020-Jan-28 01:13 028 8.9
2020-Jan-28 01:08 028 9.4
2020-Jan-28 01:03 028 9.4
2020-Jan-28 00:58 028 9.4
2020-Jan-28 00:53 028 9.4
2020-Jan-28 00:48 028 9.4
2020-Jan-28 00:43 028 9.4
2020-Jan-28 00:38 028 9.4
2020-Jan-28 00:33 028 10.0
2020-Jan-28 00:28 028 10.0
2020-Jan-28 00:23 028 10.0
2020-Jan-28 00:18 028 10.6
2020-Jan-28 00:13 028 10.6
2020-Jan-28 00:08 028 11.1
2020-Jan-28 00:03 028 11.7
2020-Jan-27 23:58 028 11.7
2020-Jan-27 23:53 028 11.7
2020-Jan-27 23:48 028 12.2
2020-Jan-27 23:43 028 0 12.2
2020-Jan-27 23:38 028 0 12.2
2020-Jan-27 23:33 015 0 12.2
2020-Jan-27 23:28 015 1 12.8
2020-Jan-27 23:23 041 1 12.8
2020-Jan-27 23:18 005 1 12.8
2020-Jan-27 23:13 053 2 12.8
2020-Jan-27 23:08 022 2 12.8
2020-Jan-27 23:03 013 1 13.3
2020-Jan-27 22:58 019 1 13.3
2020-Jan-27 22:53 057 0 13.3
2020-Jan-27 22:48 025 1 13.3
2020-Jan-27 22:43 042 1 13.3
2020-Jan-27 22:38 022 1 13.3
2020-Jan-27 22:33 042 1 13.3
2020-Jan-27 22:28 080 1 13.3
2020-Jan-27 22:23 355 1 13.3
2020-Jan-27 22:18 360 2 13.3
2020-Jan-27 22:13 047 3 13.3
2020-Jan-27 22:08 360 2 13.3
2020-Jan-27 22:03 014 3 13.3
2020-Jan-27 21:58 053 4 12.8
2020-Jan-27 21:53 020 3 12.8
2020-Jan-27 21:48 355 3 12.8
2020-Jan-27 21:43 013 3 13.3
2020-Jan-27 21:38 331 2 12.8
2020-Jan-27 21:33 344 3 13.3
2020-Jan-27 21:28 321 3 13.3
2020-Jan-27 21:23 339 3 13.3
2020-Jan-27 21:18 355 2 13.3
2020-Jan-27 21:13 321 3 13.3
2020-Jan-27 21:08 328 4 13.3
2020-Jan-27 21:03 005 4 13.3
2020-Jan-27 20:58 021 4 13.3
2020-Jan-27 20:53 033 2 13.3
2020-Jan-27 20:48 348 3 13.3
2020-Jan-27 20:43 322 4 13.3
2020-Jan-27 20:38 324 4 13.3
2020-Jan-27 20:33 336 3 13.9
2020-Jan-27 20:28 329 3 13.9
2020-Jan-27 20:23 341 4 13.9
2020-Jan-27 20:18 360 4 13.9
2020-Jan-27 20:13 355 4 13.9
2020-Jan-27 20:08 329 4 13.9
2020-Jan-27 20:03 343 5 13.9
2020-Jan-27 19:58 319 5 13.9
2020-Jan-27 19:53 315 4 13.9
2020-Jan-27 19:48 323 4 13.9
2020-Jan-27 19:43 333 5 13.9
2020-Jan-27 19:38 323 4 14.4
2020-Jan-27 19:33 346 4 14.4
2020-Jan-27 19:28 310 4 14.4
2020-Jan-27 19:23 335 3 14.4
2020-Jan-27 19:18 343 3 15.0
2020-Jan-27 19:13 328 4 15.0
2020-Jan-27 19:08 329 4 14.4
2020-Jan-27 19:03 323 3 15.0
2020-Jan-27 18:58 325 2 15.0
2020-Jan-27 18:53 330 2 15.6
2020-Jan-27 18:48 017 3 15.0
2020-Jan-27 18:43 326 3 15.0
2020-Jan-27 18:38 329 2 15.0
2020-Jan-27 18:33 331 3 15.0
2020-Jan-27 18:28 315 3 15.6
2020-Jan-27 18:23 339 3 15.6
2020-Jan-27 18:18 055 3 15.0
2020-Jan-27 18:13 321 3 14.4
2020-Jan-27 18:08 315 2 14.4
2020-Jan-27 18:03 329 2 14.4
2020-Jan-27 17:58 335 3 14.4
2020-Jan-27 17:53 307 3 13.9
2020-Jan-27 17:48 297 4 13.3
2020-Jan-27 17:43 293 4 13.3
2020-Jan-27 17:38 300 4 13.3
2020-Jan-27 17:33 288 4 12.8
2020-Jan-27 17:28 293 4 12.8
2020-Jan-27 17:23 292 5 12.8
2020-Jan-27 17:18 291 5 12.8
2020-Jan-27 17:13 290 2 13.3
2020-Jan-27 17:08 327 1 13.9
2020-Jan-27 17:03 355 1 13.9
2020-Jan-27 16:58 331 0 13.3
2020-Jan-27 16:53 322 0 13.3
2020-Jan-27 16:48 322 0 12.8
2020-Jan-27 16:43 322 1 12.2
2020-Jan-27 16:38 322 1 12.2
2020-Jan-27 16:33 322 1 12.2
2020-Jan-27 16:28 321 0 12.2
2020-Jan-27 16:23 321 0 11.7
2020-Jan-27 16:18 321 1 11.7
2020-Jan-27 16:13 321 1 11.7
2020-Jan-27 16:08 321 0 11.7
2020-Jan-27 16:03 321 0 11.7
2020-Jan-27 15:58 321 0 11.7
2020-Jan-27 15:53 319 0 11.7
2020-Jan-27 15:48 044 0 11.7
2020-Jan-27 15:43 075 0 11.1
2020-Jan-27 15:38 075 11.1
2020-Jan-27 15:33 075 0 11.1
2020-Jan-27 15:28 077 0 11.1
2020-Jan-27 15:23 027 1 10.6
2020-Jan-27 15:18 031 0 10.6
2020-Jan-27 15:13 041 0 10.6
2020-Jan-27 15:08 336 0 10.6
2020-Jan-27 15:03 005 1 10.6
2020-Jan-27 14:58 360 1 10.0
2020-Jan-27 14:53 042 1 10.0
2020-Jan-27 14:48 047 1 10.0
2020-Jan-27 14:43 050 1 10.0
2020-Jan-27 14:38 044 0 10.0
2020-Jan-27 14:33 019 0 9.4
2020-Jan-27 14:28 005 0 9.4
2020-Jan-27 14:23 037 9.4
2020-Jan-27 14:18 017 9.4
2020-Jan-27 14:13 005 0 9.4
2020-Jan-27 14:08 360 1 9.4
2020-Jan-27 14:03 005 1 9.4
2020-Jan-27 13:58 005 1 9.4
2020-Jan-27 13:53 019 1 9.4
2020-Jan-27 13:48 355 2 9.4
2020-Jan-27 13:43 355 1 9.4
2020-Jan-27 13:38 347 1 9.4
2020-Jan-27 13:33 019 1 9.4
2020-Jan-27 13:28 360 0 9.4
2020-Jan-27 13:23 340 0 9.4
2020-Jan-27 13:18 005 1 9.4
2020-Jan-27 13:13 327 1 9.4
2020-Jan-27 13:08 010 0 9.4
2020-Jan-27 13:03 027 0 9.4
2020-Jan-27 12:58 323 9.4
2020-Jan-27 12:53 038 0 9.4
2020-Jan-27 12:48 042 0 9.4
2020-Jan-27 12:43 009 0 9.4
2020-Jan-27 12:38 005 0 9.4
2020-Jan-27 12:33 034 0 9.4
2020-Jan-27 12:28 013 0 9.4
2020-Jan-27 12:23 013 0 9.4
2020-Jan-27 12:18 013 0 9.4
2020-Jan-27 12:13 005 0 9.4
2020-Jan-27 12:08 360 9.4
2020-Jan-27 12:03 360 0 9.4
2020-Jan-27 11:58 360 0 9.4
2020-Jan-27 11:53 005 0 9.4
2020-Jan-27 11:48 053 0 9.4
2020-Jan-27 11:43 071 0 9.4
2020-Jan-27 11:38 028 0 9.4
2020-Jan-27 11:33 029 9.4
2020-Jan-27 11:28 039 0 9.4
2020-Jan-27 11:23 039 0 9.4
2020-Jan-27 11:18 027 0 9.4
2020-Jan-27 11:13 027 0 9.4
2020-Jan-27 11:08 027 0 9.4
2020-Jan-27 11:03 027 0 9.4
2020-Jan-27 10:58 057 0 9.4
2020-Jan-27 10:53 076 0 9.4
2020-Jan-27 10:48 022 0 9.4
2020-Jan-27 10:43 024 9.4
2020-Jan-27 10:38 026 9.4
2020-Jan-27 10:33 032 8.9
2020-Jan-27 10:28 032 0 8.9
2020-Jan-27 10:23 032 0 8.9
2020-Jan-27 10:18 057 8.9
2020-Jan-27 10:13 042 8.9
2020-Jan-27 10:08 042 8.9
2020-Jan-27 10:03 042 0 8.9
2020-Jan-27 09:58 005 0 8.9
2020-Jan-27 09:53 029 8.9
2020-Jan-27 09:48 060 8.9
2020-Jan-27 09:43 019 0 8.9
2020-Jan-27 09:38 019 0 8.3
2020-Jan-27 09:33 026 0 8.3
2020-Jan-27 09:28 047 8.3
2020-Jan-27 09:23 017 8.3
2020-Jan-27 09:18 020 0 8.3
2020-Jan-27 09:13 020 0 8.3
2020-Jan-27 09:08 020 0 8.3
2020-Jan-27 09:03 025 0 8.3
2020-Jan-27 08:58 025 0 8.3
2020-Jan-27 08:53 055 8.9
2020-Jan-27 08:48 032 0 8.9
2020-Jan-27 08:43 020 0 8.9
2020-Jan-27 08:38 005 0 8.9
2020-Jan-27 08:33 013 0 8.9
2020-Jan-27 08:28 080 0 8.9
2020-Jan-27 08:23 032 0 8.9
2020-Jan-27 08:18 022 0 8.9
2020-Jan-27 08:13 032 0 8.9
2020-Jan-27 08:08 019 0 9.4
2020-Jan-27 08:03 027 0 9.4
2020-Jan-27 07:58 010 0 9.4
2020-Jan-27 07:53 012 0 9.4
2020-Jan-27 07:48 012 9.4
2020-Jan-27 07:43 035 0 9.4
2020-Jan-27 07:38 035 0 10.0
2020-Jan-27 07:33 017 0 10.0
2020-Jan-27 07:28 013 10.0
2020-Jan-27 07:23 015 10.0
2020-Jan-27 07:18 015 10.0
2020-Jan-27 07:13 014 10.0
2020-Jan-27 07:08 015 10.0
2020-Jan-27 07:03 014 10.0
2020-Jan-27 06:58 014 0 10.0
2020-Jan-27 06:53 014 0 10.0
2020-Jan-27 06:48 014 0 10.0
2020-Jan-27 06:43 053 0 10.0
2020-Jan-27 06:38 019 0 10.0
2020-Jan-27 06:33 036 0 10.0
2020-Jan-27 06:28 068 0 10.0
2020-Jan-27 06:23 082 0 10.0
2020-Jan-27 06:18 070 1 10.0
2020-Jan-27 06:13 063 1 10.0
2020-Jan-27 06:08 072 1 10.0
2020-Jan-27 06:03 094 0 10.0
2020-Jan-27 05:58 104 0 10.0
2020-Jan-27 05:53 050 0 10.0
2020-Jan-27 05:48 082 1 10.0
2020-Jan-27 05:43 067 2 10.0
2020-Jan-27 05:38 086 2 10.0
2020-Jan-27 05:33 095 2 10.0
2020-Jan-27 05:28 096 2 10.0
2020-Jan-27 05:23 065 2 10.0
2020-Jan-27 05:18 081 1 10.0
2020-Jan-27 05:13 056 2 10.0
2020-Jan-27 05:08 095 1 10.0
2020-Jan-27 05:03 067 1 10.0
2020-Jan-27 04:58 051 1 10.0
2020-Jan-27 04:53 051 1 10.0
2020-Jan-27 04:48 079 1 10.0
2020-Jan-27 04:43 081 1 10.0
2020-Jan-27 04:38 061 1 10.0
2020-Jan-27 04:33 047 2 10.0
2020-Jan-27 04:28 026 1 10.0
2020-Jan-27 04:23 063 1 10.0
2020-Jan-27 04:18 063 1 10.0
2020-Jan-27 04:13 079 1 10.0
2020-Jan-27 04:08 011 1 10.0
2020-Jan-27 04:03 043 1 10.0
2020-Jan-27 03:58 069 1 10.0
2020-Jan-27 03:53 013 1 10.0
2020-Jan-27 03:48 023 1 10.0
2020-Jan-27 03:43 041 2 10.0
2020-Jan-27 03:38 089 2 10.0
2020-Jan-27 03:33 094 2 10.0
2020-Jan-27 03:28 103 2 10.0
2020-Jan-27 03:23 081 2 10.0
2020-Jan-27 03:18 103 2 10.0
2020-Jan-27 03:13 076 2 10.0
2020-Jan-27 03:08 084 2 10.0
2020-Jan-27 03:03 109 2 10.0
2020-Jan-27 02:58 066 3 10.0
2020-Jan-27 02:53 091 3 10.0
2020-Jan-27 02:48 096 3 10.0
2020-Jan-27 02:43 094 4 10.0
2020-Jan-27 02:38 088 3 10.0
2020-Jan-27 02:33 096 3 10.0
2020-Jan-27 02:28 046 2 10.0
2020-Jan-27 02:23 089 2 10.0
2020-Jan-27 02:18 082 1 10.0
2020-Jan-27 02:13 090 1 10.0
2020-Jan-27 02:08 102 1 10.0
2020-Jan-27 02:03 052 1 10.0
2020-Jan-27 01:58 093 2 10.0
2020-Jan-27 01:53 068 2 10.0
2020-Jan-27 01:48 071 1 10.0
2020-Jan-27 01:43 072 1 10.0
2020-Jan-27 01:38 075 1 10.0
2020-Jan-27 01:33 092 1 10.0
2020-Jan-27 01:28 100 2 10.0
2020-Jan-27 01:23 107 2 10.0
2020-Jan-27 01:18 103 2 10.0
2020-Jan-27 01:13 038 3 10.6
2020-Jan-27 01:08 081 2 10.0
2020-Jan-27 01:03 094 2 10.0
2020-Jan-27 00:58 074 1 10.0
2020-Jan-27 00:53 107 2 10.0
2020-Jan-27 00:48 105 2 10.0
2020-Jan-27 00:43 111 1 10.0
2020-Jan-27 00:38 109 0 10.0
2020-Jan-27 00:33 101 0 10.0
2020-Jan-27 00:28 121 1 10.0
2020-Jan-27 00:23 111 1 9.4
2020-Jan-27 00:18 059 2 9.4
2020-Jan-27 00:13 090 3 9.4
2020-Jan-27 00:08 117 3 9.4
2020-Jan-27 00:03 115 2 9.4
2020-Jan-26 23:58 047 1 9.4
2020-Jan-26 23:53 024 2 9.4
2020-Jan-26 23:48 323 2 9.4
2020-Jan-26 23:43 091 2 9.4
2020-Jan-26 23:38 094 1 9.4
2020-Jan-26 23:33 102 2 9.4
2020-Jan-26 23:28 022 2 9.4
2020-Jan-26 23:23 056 3 9.4
2020-Jan-26 23:18 101 1 8.9
2020-Jan-26 23:13 078 1 8.9
2020-Jan-26 23:08 071 2 8.9
2020-Jan-26 23:03 080 2 9.4